GEFSMW_500_meanwind_024.txt.gz
Wind_Speed
32 31 29 28 26 26 26 25 25 24 23 22 21 20 19 18 17 17 18 18 19 18 17 19 20 22 23 23 23 23 23 22 21 21 20 21 21 21 21 21 22 23 23
36 33 31 29 28 28 27 27 27 27 26 25 23 22 21 20 20 19 19 19 19 19 20 21 22 24 24 25 25 25 25 24 23 23 22 21 22 22 21 21 22 23 23
39 36 34 32 30 30 28 28 29 30 29 28 26 25 24 23 22 21 20 20 20 20 21 22 24 25 25 26 27 27 27 26 26 25 25 24 23 22 23 22 22 23 23
39 36 34 32 31 30 30 31 32 33 33 31 32 29 27 25 23 21 21 22 22 22 22 23 24 25 26 26 27 27 28 28 28 28 27 26 24 23 23 23 23 23 23
37 36 34 33 32 32 32 34 36 36 35 36 34 31 28 25 23 22 22 22 22 23 24 24 24 25 25 26 27 27 28 28 30 30 30 29 27 24 24 24 24 24 23
34 34 35 34 34 34 34 35 37 38 38 40 36 32 28 24 21 21 21 22 22 23 24 24 24 24 25 26 27 27 27 28 29 31 32 32 29 26 25 25 24 24 23
32 33 35 35 36 36 36 37 39 40 41 41 35 30 24 21 19 20 20 21 22 23 24 24 24 24 24 25 26 26 27 27 28 29 31 32 30 28 27 26 25 25 24
31 33 34 35 36 36 37 39 41 39 39 38 30 24 20 18 18 18 20 21 22 23 23 24 23 23 24 25 26 26 25 25 26 27 29 30 28 26 26 26 25 26 25
29 31 32 34 36 35 36 37 38 37 35 28 21 18 17 17 17 18 19 21 22 23 23 23 24 24 24 25 25 25 24 24 24 25 26 27 26 25 23 26 26 26 27
26 28 30 31 31 33 33 32 32 30 25 19 14 13 15 16 18 19 20 22 23 24 24 25 25 25 25 25 25 24 23 23 23 23 23 23 23 22 22 23 25 26 27
22 24 26 28 28 27 27 24 20 18 14 12 12 12 14 17 19 20 21 23 24 25 26 26 26 26 26 25 24 23 22 22 21 20 20 20 20 20 20 21 22 23 25
16 15 16 17 16 15 15 13 9 8 8 9 10 12 15 18 20 22 23 24 25 26 27 27 27 26 25 24 23 22 22 21 21 20 20 19 18 18 18 20 21 22 24
6 5 4 4 5 7 7 7 7 7 7 10 13 15 17 19 20 22 23 24 24 25 25 25 24 24 23 23 22 22 22 21 21 20 19 19 19 19 19 18 20 20 22
4 3 3 5 6 7 7 7 7 8 10 12 15 18 19 20 20 21 22 22 22 23 22 23 23 22 22 21 21 21 21 21 21 21 20 20 19 19 18 18 19 20 21
6 5 5 6 6 5 5 6 7 10 12 15 16 18 18 18 18 18 18 18 19 20 21 21 22 22 22 22 21 21 21 22 22 22 22 21 21 20 19 19 19 20 21
7 6 5 3 3 4 5 7 9 11 12 14 15 16 16 16 15 15 16 17 18 20 21 22 22 22 22 22 22 21 21 22 22 22 22 22 22 22 21 21 21 21 21
7 5 3 1 1 2 4 5 7 9 10 12 13 15 15 15 15 16 16 17 19 20 21 21 22 22 23 23 22 22 22 22 22 22 22 22 22 22 22 22 22 22 22
9 7 5 4 4 3 4 6 7 9 11 13 14 16 16 17 17 18 18 18 19 20 21 22 22 22 23 23 23 22 22 22 22 22 22 22 22 21 21 22 22 22 23
11 9 8 7 6 6 6 7 8 10 11 13 14 16 16 17 18 18 19 19 19 20 21 21 21 21 21 22 21 21 21 21 21 21 21 21 22 21 21 22 22 22 22
11 10 9 8 8 8 8 9 10 11 13 14 15 16 17 18 18 19 19 19 19 20 20 20 20 19 19 19 20 20 20 20 20 20 21 21 21 21 22 22 22 22 22
11 10 10 9 9 9 10 10 11 13 14 16 17 17 18 18 19 20 20 20 19 19 19 19 19 18 19 19 20 20 20 21 21 21 22 22 21 22 22 22 22 22 22
12 12 11 12 12 12 13 14 14 15 16 17 17 18 18 19 19 19 19 18 18 18 17 17 18 18 19 19 20 21 21 22 23 23 23 24 23 23 22 22 22 21 21
14 14 14 14 15 16 16 17 17 17 17 17 18 18 18 18 18 17 17 16 16 15 15 15 15 15 16 17 18 20 21 22 23 24 24 24 24 24 24 23 23 22 21
15 15 15 16 16 17 17 18 18 18 18 17 17 17 17 17 16 16 15 15 14 13 13 12 13 13 15 16 17 18 19 20 20 21 21 22 23 24 24 24 23 22 21
15 16 16 17 17 17 18 18 18 18 18 18 17 17 17 17 16 16 15 14 13 13 12 11 12 13 13 13 14 14 14 14 15 16 17 18 19 20 21 21 22 21 21
15 16 16 16 17 17 17 17 17 18 18 18 19 19 19 19 18 18 17 16 15 14 13 13 12 12 12 12 12 12 11 9 8 8 9 11 13 14 15 16 17 18 18

GEFSMW_500_meanwind_030.txt.gz
Wind_Speed
36 36 35 34 33 32 30 28 27 27 27 27 27 26 26 25 25 25 25 25 25 24 23 22 21 21 21 21 22 22 22 22 22 21 21 21 21 22 22 22 22 23 24
39 39 39 38 37 35 33 32 30 30 30 30 31 31 29 29 29 29 28 28 28 27 25 24 23 22 22 23 23 23 24 24 24 23 23 23 24 24 23 23 23 24 25
39 39 40 40 40 39 38 36 35 34 34 34 36 36 35 33 33 33 32 31 31 29 27 26 25 24 24 24 24 24 24 25 25 25 25 26 26 26 25 25 24 25 25
35 36 37 39 39 40 40 40 39 38 37 37 38 40 41 39 37 36 34 33 32 30 28 27 26 25 25 25 24 24 25 25 26 26 26 27 28 29 27 27 26 25 25
33 33 34 35 38 40 41 42 42 41 40 40 40 43 44 43 41 38 36 34 33 31 28 27 27 26 25 25 25 25 25 25 26 26 27 27 28 29 29 29 28 27 26
33 33 33 33 35 38 40 42 43 43 42 42 42 45 46 45 43 40 38 37 34 31 28 27 26 26 25 25 25 25 24 24 25 26 27 27 27 29 29 29 29 28 27
33 33 33 33 35 37 39 41 43 43 43 43 44 46 48 47 44 44 40 37 34 31 28 26 25 24 24 25 24 24 24 24 24 25 25 26 26 26 27 28 29 29 27
30 31 32 33 35 36 37 39 41 42 42 43 43 44 45 45 43 40 37 33 31 28 24 23 22 22 23 23 23 23 23 24 24 24 24 24 25 25 25 26 28 28 28
26 28 30 31 32 33 34 35 36 38 39 40 41 42 42 41 40 34 29 29 26 21 19 20 20 21 21 22 22 22 22 23 23 23 23 23 23 24 24 25 26 27 27
20 22 24 25 26 27 29 30 31 32 34 35 36 38 37 34 31 25 21 19 16 15 16 19 19 20 21 22 22 22 22 22 23 23 22 22 22 21 22 22 23 24 25
14 16 17 18 19 20 22 24 25 26 28 27 26 25 23 19 16 14 12 11 11 14 16 17 19 20 21 21 21 21 21 22 22 22 22 22 21 21 20 20 21 22 23
6 7 9 9 11 12 13 15 15 15 15 13 12 10 8 8 7 6 7 9 12 14 16 17 18 19 20 20 20 20 20 21 21 22 22 22 21 21 20 20 20 20 21
3 3 5 5 4 5 6 7 6 6 6 5 4 4 3 3 4 5 8 10 13 14 16 17 18 19 19 19 19 19 19 20 20 21 22 22 22 21 20 20 20 20 20
8 8 8 8 8 8 8 7 6 6 5 3 1 1 3 4 6 8 10 12 13 15 16 17 18 18 19 19 20 20 20 20 21 21 21 22 22 22 21 20 21 21 20
11 11 10 9 9 9 9 7 5 4 3 2 3 4 4 5 7 8 10 12 13 15 17 18 18 19 20 20 21 21 21 21 22 22 22 22 22 22 22 21 22 22 21
13 12 11 9 9 8 7 6 5 4 4 4 4 5 6 8 9 10 12 14 15 17 18 19 19 20 21 21 22 22 22 22 22 22 22 22 22 22 23 23 23 23 23
15 14 13 12 11 9 8 7 7 6 5 6 7 8 9 10 11 13 14 16 18 19 20 21 21 22 22 22 22 22 22 23 23 23 23 23 22 22 22 23 24 24 23
16 15 14 13 11 10 9 8 8 7 7 7 8 10 11 12 14 15 16 18 19 20 21 21 22 22 22 22 22 22 23 24 23 22 22 22 22 22 22 23 23 24 24
15 14 13 12 11 10 10 9 9 9 9 10 11 12 12 13 15 16 17 19 19 20 21 22 22 23 22 22 22 22 23 23 22 22 22 22 22 22 22 22 23 23 23
15 13 12 11 11 10 10 9 9 10 10 11 11 12 13 14 15 16 17 18 19 20 20 21 21 22 22 22 22 22 22 22 22 21 21 21 21 21 22 22 22 23 23
14 13 13 12 12 11 11 10 10 10 11 11 12 13 13 14 15 16 16 16 16 16 17 18 18 19 20 21 21 22 22 23 23 22 22 21 21 21 20 21 21 21 22
14 14 13 13 13 12 12 12 12 12 12 13 13 14 14 14 14 14 14 13 12 12 13 13 14 15 17 18 19 19 20 21 22 22 21 21 21 21 20 20 20 21 22
15 15 15 15 14 14 14 14 14 14 14 15 15 15 15 15 15 15 15 13 12 11 10 10 11 12 13 14 15 16 17 18 18 19 20 20 20 20 20 20 20 20 21
16 16 16 17 17 16 16 16 16 16 17 17 18 18 18 18 18 17 17 15 14 12 11 11 11 11 11 11 11 12 13 13 14 15 16 17 17 18 18 18 19 19 19
16 16 17 17 17 17 17 17 17 17 18 18 19 20 20 20 20 19 19 18 16 15 14 13 13 13 12 12 11 10 9 9 8 9 9 11 13 14 14 15 16 16 17
15 16 16 16 17 17 17 17 17 18 18 19 20 21 21 21 21 21 20 20 19 18 17 16 16 15 15 14 14 12 11 9 7 5 4 3 5 6 8 9 10 11 11

GEFSMW_500_meanwind_036.txt.gz
Wind_Speed
40 39 38 37 37 37 36 36 34 32 32 31 31 30 30 29 27 25 24 24 24 25 24 26 27 27 26 26 25 24 23 22 22 21 21 21 21 21 21 21 22 22 21
41 41 40 39 39 40 39 39 39 37 36 35 35 35 35 33 32 29 27 26 27 27 27 27 29 29 28 27 27 26 25 24 24 23 23 22 22 23 22 22 24 24 23
41 40 40 39 39 39 40 39 39 39 38 37 37 37 37 37 35 34 32 30 29 30 29 29 29 29 30 30 29 28 26 26 25 25 24 24 24 24 24 25 26 26 25
38 38 37 37 37 37 38 38 38 39 38 38 37 38 38 39 38 37 36 34 33 32 33 33 32 31 31 31 31 29 28 27 26 26 25 25 25 25 25 26 26 26 26
35 35 34 33 34 34 34 35 35 36 37 37 37 38 39 40 39 39 40 38 37 36 37 36 35 34 33 33 31 30 30 28 27 26 25 25 25 25 25 26 26 26 27
34 33 32 32 32 33 33 33 34 35 36 37 37 37 39 40 41 41 41 40 40 40 40 38 35 35 34 33 31 30 30 29 27 26 25 25 25 25 26 26 27 26 26
34 33 33 32 33 33 33 33 33 34 35 36 37 38 39 40 41 41 42 43 43 42 40 39 38 35 33 32 31 30 29 27 26 26 25 25 25 26 26 26 27 26 26
33 32 32 32 32 33 32 33 34 35 36 36 37 38 38 40 40 40 41 42 41 39 39 38 37 34 31 30 30 29 27 25 24 25 25 25 26 26 26 26 26 26 26
30 31 31 30 30 31 31 31 32 33 34 35 35 36 37 37 38 38 40 39 39 37 37 36 33 31 29 29 30 27 24 23 24 25 26 26 26 26 27 27 26 25 25
24 26 28 28 28 29 29 29 30 30 30 30 31 31 32 33 34 34 35 36 35 34 33 32 30 29 27 26 25 23 22 22 24 25 25 25 25 26 26 26 26 26 25
15 16 19 22 23 24 24 25 25 25 25 25 25 26 27 27 27 27 27 28 27 26 25 24 22 22 21 20 20 21 21 22 23 23 24 25 25 25 26 26 25 25 24
11 11 12 13 14 16 17 17 18 18 18 18 18 19 19 19 18 17 16 15 15 13 13 13 14 15 16 18 19 20 21 22 23 23 23 24 24 24 25 25 25 25 24
3 2 3 4 5 7 7 7 8 8 9 8 9 9 8 8 8 7 6 5 6 6 7 9 11 13 16 17 19 20 21 22 23 24 24 24 23 24 24 24 24 24 24
6 5 6 7 7 6 4 3 4 5 4 3 2 1 1 1 1 1 2 3 4 6 8 11 13 14 16 18 19 20 22 22 23 23 24 24 24 23 23 23 24 24 24
12 11 11 11 11 12 12 11 10 9 9 8 7 6 5 5 5 5 5 5 6 7 9 12 13 15 16 18 20 21 22 22 23 23 23 23 23 23 23 23 23 23 24
18 17 16 15 14 14 14 13 13 11 10 9 9 8 7 7 7 6 6 8 9 11 13 14 15 16 17 19 21 22 22 22 22 23 23 22 22 22 22 23 23 23 23
20 19 18 17 16 15 15 13 13 12 11 10 10 9 9 9 9 9 10 11 12 13 15 16 17 17 18 20 21 21 22 22 23 23 23 21 21 21 22 22 23 22 22
19 18 17 16 15 15 14 13 12 12 11 11 11 11 11 11 11 12 12 13 14 15 16 17 18 18 19 20 21 21 22 22 22 22 21 21 20 21 21 21 21 21 22
18 18 17 16 16 15 15 14 14 13 13 13 13 13 13 12 13 13 13 14 14 15 16 16 17 18 18 19 20 21 21 22 22 21 21 20 20 20 21 20 19 19 19
18 17 17 17 17 17 16 16 15 15 15 15 15 15 14 14 14 14 14 14 14 14 14 14 14 15 16 18 18 19 20 20 20 20 19 19 18 19 19 18 18 18 18
18 17 17 17 17 17 17 17 17 17 17 17 17 17 17 16 16 16 16 16 16 15 14 13 13 13 14 15 16 16 17 17 17 17 17 17 17 17 18 17 17 17 16
17 17 17 17 17 17 18 18 18 19 19 20 20 20 19 18 18 18 18 18 18 17 15 14 14 14 14 14 14 14 13 13 14 14 14 15 15 15 15 16 16 16 15
17 17 17 17 17 17 18 18 19 19 20 21 21 21 21 20 20 20 20 19 19 18 17 17 16 15 14 13 13 12 10 9 9 9 10 11 12 13 13 14 15 14 14
16 17 17 17 17 17 17 18 18 18 19 20 21 22 22 22 22 22 21 21 21 20 20 20 19 18 16 15 13 12 10 8 6 5 5 5 7 9 10 11 12 12 12
15 16 16 16 16 17 17 17 17 18 19 20 21 22 22 23 23 23 22 22 22 22 22 22 22 21 19 17 16 15 13 11 9 7 4 2 1 3 5 7 8 8 8
14 14 14 15 15 15 16 16 16 17 18 19 20 21 21 22 22 23 23 23 23 24 23 23 24 23 22 20 19 18 16 15 13 12 10 8 6 4 2 1 2 3 4

GEFSMW_500_meanwind_042.txt.gz
Wind_Speed
39 39 39 39 38 38 38 37 35 34 33 31 30 29 29 29 29 29 30 28 26 24 24 23 22 22 22 22 23 23 24 25 24 24 23 23 23 22 20 19 19 19 19
40 40 40 40 40 41 40 40 39 37 36 35 34 33 33 33 33 32 32 31 29 27 25 25 24 23 22 22 23 24 24 26 26 26 26 25 25 25 23 22 21 20 21
42 41 41 41 41 42 42 42 41 40 39 37 36 36 35 35 35 33 33 32 31 30 28 27 25 24 23 23 23 24 25 26 27 28 28 27 27 27 26 25 24 22 22
43 41 41 41 41 41 42 42 41 40 39 38 38 37 36 36 36 36 35 32 32 31 30 29 28 27 25 24 23 23 25 27 28 28 29 29 29 29 28 27 26 25 24
40 39 38 38 38 38 39 39 40 39 39 38 37 37 36 35 35 35 33 32 31 31 32 31 29 29 28 26 25 24 26 28 29 30 31 31 31 30 30 29 28 27 26
35 36 35 36 35 34 35 36 37 37 37 36 36 35 34 33 33 33 33 33 33 32 32 31 31 30 28 26 25 25 25 27 30 31 32 32 32 32 31 30 30 28 28
32 32 34 34 33 32 32 32 33 34 34 34 34 33 33 32 32 33 33 33 34 34 34 33 32 30 27 26 26 27 27 28 29 30 32 34 33 32 31 31 30 29 28
27 26 26 28 29 30 30 31 30 32 33 33 33 33 33 34 34 34 34 34 34 35 34 34 33 32 31 29 28 28 27 28 30 30 31 33 32 31 31 30 29 28 27
17 21 22 23 23 24 27 28 29 30 31 31 31 32 33 33 34 34 34 35 35 35 34 34 33 31 30 29 28 29 29 29 29 31 30 29 30 30 30 28 27 27 27
13 13 13 16 17 19 22 23 26 27 28 28 28 29 30 31 32 32 32 32 31 32 32 31 30 30 29 29 29 29 29 29 28 29 27 27 28 29 27 26 26 26 26
9 9 9 9 10 12 15 17 19 21 21 22 22 24 25 26 26 26 26 26 26 26 25 25 25 25 25 25 26 28 28 27 27 27 27 28 27 26 25 26 25 24 24
10 8 6 6 4 5 6 8 11 13 14 15 16 17 17 17 18 17 17 16 17 17 16 17 18 20 19 19 21 22 22 23 22 23 23 24 24 24 24 24 23 23 23
13 11 8 7 4 2 2 1 2 4 6 6 8 8 8 9 9 9 9 10 9 9 9 10 11 12 13 14 15 15 16 17 18 19 20 21 21 22 22 23 23 23 23
16 14 13 12 11 10 8 9 8 5 4 3 3 2 1 1 1 2 3 3 3 4 5 6 7 8 9 11 12 13 14 15 16 18 19 20 20 21 22 22 23 23 23
17 17 18 17 16 15 14 14 12 12 11 10 9 8 7 6 5 4 4 4 4 5 6 7 8 9 11 13 14 15 16 17 18 19 19 20 20 21 22 22 22 22 22
21 20 20 20 19 19 18 16 15 13 12 11 10 9 8 8 7 6 6 6 6 7 9 10 11 12 14 15 16 17 19 20 20 21 21 22 22 23 23 22 22 22 22
20 20 19 19 19 19 18 17 16 15 14 13 12 11 10 9 9 8 8 8 8 9 10 11 12 14 15 17 18 20 20 21 22 22 22 22 22 23 23 22 22 22 21
20 20 19 19 19 19 18 18 17 17 16 15 14 13 12 11 11 11 10 10 10 10 11 12 13 14 16 18 19 20 21 22 22 22 23 22 22 23 23 22 22 21 21
19 20 20 19 19 19 19 19 18 18 17 17 17 16 15 15 14 14 13 12 11 11 12 12 13 14 15 16 18 20 20 21 21 22 22 23 23 22 22 21 20 20 19
19 19 19 19 19 19 19 20 19 19 20 19 19 18 17 17 16 16 16 15 14 13 13 12 13 13 14 15 16 17 18 18 18 18 19 19 20 19 19 19 19 18 17
19 19 19 19 19 20 20 20 20 20 20 20 20 20 19 19 18 18 18 18 17 16 15 14 13 13 13 13 13 13 13 13 13 14 14 14 15 15 16 16 16 16 15
19 19 19 19 19 19 20 20 21 21 21 21 21 21 21 21 20 20 20 20 19 19 18 17 15 14 14 13 12 10 9 8 7 8 9 10 11 12 13 14 13 13 12
18 18 19 19 19 19 19 19 20 20 21 21 21 22 22 22 22 22 22 22 22 21 21 20 18 17 16 15 13 10 9 7 5 3 3 4 6 8 9 10 10 10 10
16 17 17 17 17 17 17 18 18 19 19 19 20 21 21 22 22 23 23 23 23 23 23 22 21 20 19 18 16 14 11 10 8 6 4 2 1 3 5 6 6 7 7
14 15 15 16 16 15 15 16 16 17 18 18 19 19 20 21 22 22 23 23 23 24 24 24 23 22 21 20 19 18 16 14 13 11 9 7 5 3 3 3 3 3 2
12 12 13 13 14 14 14 14 15 16 16 17 17 18 19 20 21 21 22 23 23 24 24 24 24 23 23 22 21 21 20 18 16 15 14 12 11 9 7 7 5 4 4

GEFSMW_500_meanwind_048.txt.gz
Wind_Speed
42 43 44 44 44 45 44 43 41 39 39 39 37 35 34 32 31 29 28 27 27 28 27 27 27 27 26 26 25 24 23 22 22 22 22 22 21 21 20 20 20 19 18
43 44 45 46 46 46 46 46 44 44 42 41 41 39 37 35 34 32 31 30 30 30 30 29 30 30 29 28 27 27 25 24 23 23 23 23 23 24 23 23 23 22 21
43 44 46 47 48 48 47 46 45 45 45 44 42 41 40 39 37 36 34 33 33 32 31 30 30 30 31 30 30 30 29 27 26 25 25 24 24 25 25 25 26 25 24
41 42 43 44 45 45 45 46 44 43 43 43 42 41 41 39 39 38 37 36 35 34 33 30 30 30 29 30 31 31 31 29 28 28 27 27 27 26 26 27 27 28 28
38 38 38 39 41 41 41 42 42 41 40 40 40 40 39 39 38 38 38 38 37 35 34 32 31 30 29 30 28 29 30 31 31 30 30 29 29 28 28 29 29 29 29
32 31 32 33 34 35 36 36 36 37 37 37 37 38 38 36 36 36 36 36 35 35 34 33 31 30 30 30 29 28 28 29 31 31 31 31 31 30 31 30 31 31 31
25 25 24 24 24 26 27 28 29 29 31 32 33 34 35 34 33 33 33 33 33 32 32 32 31 30 30 29 29 30 29 29 30 31 32 33 33 33 33 33 33 33 32
19 18 18 18 16 16 18 20 22 22 25 26 28 29 30 30 30 30 30 30 30 30 31 32 32 32 31 30 31 30 29 30 30 30 30 31 32 32 33 34 34 35 34
13 12 13 11 10 10 10 12 16 17 20 21 22 22 23 25 26 27 28 28 29 30 31 32 33 33 32 31 32 32 32 31 31 31 31 31 33 32 32 32 33 34 35
12 12 12 10 8 7 5 7 9 10 12 15 17 17 18 20 22 23 24 26 27 28 30 31 32 31 31 31 31 31 31 33 33 32 31 32 32 32 32 32 33 33 33
14 13 12 11 9 7 6 5 3 3 5 8 10 12 14 15 16 18 20 21 23 24 25 26 27 27 28 28 29 29 29 30 30 30 30 30 30 31 32 33 33 33 33
16 15 14 13 10 9 8 7 6 4 2 2 4 6 8 10 11 12 14 16 17 18 19 20 21 22 22 23 23 24 25 25 25 26 27 28 29 31 31 30 30 30 29
19 17 16 15 14 13 12 11 10 9 7 6 4 2 2 3 5 7 8 9 11 12 13 14 15 16 17 17 17 18 19 20 21 23 24 24 25 26 26 26 26 26 26
21 20 19 18 18 18 17 16 14 13 12 11 10 8 7 6 5 5 5 6 6 7 8 9 10 10 10 12 13 15 16 17 19 20 20 21 21 22 21 22 22 22 22
21 21 21 21 20 19 19 19 18 17 15 14 14 13 11 10 9 8 7 7 6 6 7 7 8 9 9 10 11 12 13 14 15 16 16 17 18 18 18 18 18 18 19
23 22 21 21 21 20 19 19 19 18 17 16 16 15 14 13 13 11 10 9 9 8 8 7 8 9 10 10 11 11 12 12 13 14 14 15 16 16 17 18 18 18 18
23 23 23 23 22 22 21 21 20 19 18 18 17 16 16 15 15 14 13 12 12 11 10 9 9 10 10 11 11 11 12 13 14 15 15 16 16 16 17 17 17 17 17
22 22 22 22 21 21 21 21 21 21 20 19 18 18 17 17 16 15 15 14 14 14 13 12 11 10 10 11 11 12 12 13 13 14 15 15 15 14 15 15 15 15 15
21 21 21 21 21 21 21 21 21 22 22 21 20 20 19 19 19 18 17 17 17 16 15 14 13 12 11 10 10 11 12 12 12 13 13 14 14 14 13 13 13 14 14
19 20 20 20 21 21 21 21 22 22 22 22 22 22 21 21 21 21 20 20 19 19 18 17 15 14 12 10 9 9 9 10 10 10 10 11 12 12 12 12 12 13 13
18 18 19 19 20 20 20 20 21 21 22 22 22 22 22 22 22 22 21 21 21 21 20 20 18 16 14 11 10 9 8 7 6 5 5 5 7 8 9 10 10 11 11
16 17 17 17 18 18 19 19 19 20 20 21 21 21 22 22 22 22 22 22 22 22 22 21 20 19 16 14 12 10 8 7 5 3 1 1 3 4 5 6 7 8 8
15 15 15 16 16 17 17 18 18 19 20 20 21 21 22 22 22 23 23 23 23 23 22 22 22 21 19 16 15 13 12 10 8 6 5 4 4 3 3 4 5 5 6
14 14 14 14 15 15 16 17 18 18 19 20 21 21 21 21 22 22 23 23 23 23 23 22 22 22 20 18 17 16 15 14 12 10 9 8 8 7 7 6 6 5 5
12 13 13 13 13 14 15 15 16 17 18 19 20 21 21 21 21 22 23 23 23 24 23 23 22 22 21 21 20 18 17 16 16 14 13 12 11 10 10 9 8 7 7
10 11 11 12 13 13 13 14 15 16 17 18 19 20 21 21 21 21 22 22 23 23 23 23 23 22 22 22 21 20 19 18 17 16 15 15 14 13 12 12 11 10 10

GEFSMW_500_meanwind_054.txt.gz
Wind_Speed
39 40 41 42 44 46 46 47 48 48 48 47 46 44 44 43 42 39 37 36 34 33 32 32 30 28 28 26 24 24 23 24 23 23 22 22 22 23 23 23 23 23 22
38 39 39 41 42 44 45 45 46 48 49 49 49 48 47 47 45 43 40 37 35 35 33 32 29 28 27 27 26 25 25 25 25 24 23 23 24 24 25 25 25 25 25
35 37 37 38 39 40 40 42 43 45 46 48 48 48 48 48 46 44 42 39 35 33 31 30 29 28 27 26 27 28 26 25 26 26 26 26 26 26 26 27 27 27 27
32 33 33 33 35 36 36 37 39 41 43 44 45 45 45 45 45 45 42 40 38 36 34 32 31 31 29 27 27 27 26 26 26 26 27 28 28 28 28 28 29 28 29
28 27 27 28 28 29 31 32 35 37 39 40 41 42 42 42 42 42 41 39 38 37 36 34 31 31 30 28 27 25 25 26 26 26 27 27 28 29 30 30 30 30 30
24 24 23 22 22 23 25 26 28 30 32 33 35 36 37 38 38 38 38 37 36 36 35 34 32 31 31 30 29 28 27 27 27 27 28 29 29 30 31 32 33 32 31
19 18 17 17 17 17 17 19 20 21 23 25 27 29 31 31 32 33 34 34 34 33 33 32 32 32 31 30 30 29 29 29 29 29 30 30 32 32 34 35 35 35 35
16 15 15 14 14 12 12 12 12 13 14 16 18 20 23 25 25 27 29 29 30 31 31 32 31 31 31 30 30 30 28 28 29 29 30 32 33 33 34 35 37 37 36
14 13 14 13 12 10 9 9 9 8 8 10 12 13 17 18 19 21 24 26 28 28 30 31 31 31 30 31 31 31 30 30 30 31 31 32 33 33 34 34 35 36 37
14 14 15 14 12 11 10 9 8 6 4 4 5 7 10 13 14 15 18 21 24 25 27 28 29 30 31 31 32 32 32 32 32 32 33 34 35 34 35 35 35 36 36
15 15 16 16 14 13 12 11 11 10 7 5 1 2 4 7 10 11 14 17 19 21 24 25 26 27 28 29 30 31 31 31 31 32 32 33 34 34 34 34 34 35 35
16 17 17 18 18 16 15 15 14 12 12 11 8 5 2 2 4 6 8 11 14 17 19 21 23 23 25 25 26 27 28 29 30 30 31 31 32 32 33 34 33 34 34
18 19 19 19 19 19 19 18 17 16 15 13 11 8 6 3 1 2 4 6 9 11 13 15 17 18 20 22 24 25 26 27 28 28 29 29 29 30 29 30 31 31 32
20 20 20 20 20 20 19 18 18 17 16 15 14 12 10 8 7 4 2 1 2 5 7 10 12 14 16 18 20 22 22 23 24 25 26 27 28 28 27 27 27 27 28
21 21 21 21 21 20 20 19 18 18 17 16 15 14 13 12 10 8 6 4 3 2 3 6 8 10 12 13 15 17 18 19 20 21 22 23 24 25 25 26 26 26 25
21 21 21 21 21 21 21 20 20 19 19 18 17 17 16 14 13 11 9 8 7 6 5 5 6 7 9 10 12 14 15 17 18 19 20 21 21 22 22 23 24 23 23
20 20 21 21 21 21 21 21 21 20 19 19 18 18 17 16 15 14 13 11 10 9 8 7 7 7 8 9 11 12 13 15 16 17 18 19 19 19 19 20 21 21 21
20 20 20 20 21 21 21 21 21 20 20 20 20 20 19 18 17 16 16 15 13 12 11 9 9 8 7 7 7 8 9 10 11 12 13 14 15 15 15 16 17 16 17
18 19 19 20 20 21 21 21 21 21 20 20 19 19 19 18 18 18 17 16 15 15 14 12 11 9 8 7 6 6 6 7 7 8 9 10 10 11 12 12 13 13 14
16 16 17 18 19 19 20 20 20 20 20 20 19 19 19 19 19 19 18 17 17 16 16 14 13 12 9 7 6 5 5 4 5 5 6 7 8 9 10 11 11 12 12
14 15 15 16 17 18 18 19 19 20 20 19 19 19 19 19 19 19 19 18 18 17 17 16 15 13 11 8 6 4 3 2 1 2 3 4 6 7 8 9 10 10 10
13 14 14 15 15 16 17 18 19 19 20 19 19 19 20 20 20 20 20 19 19 19 18 17 17 15 13 11 9 7 5 4 3 3 3 3 5 6 7 7 8 8 9
12 12 13 13 14 15 16 17 18 19 20 20 19 19 20 20 20 21 21 21 20 20 19 19 18 17 16 14 12 11 10 8 7 6 6 5 5 5 6 6 7 8 7
11 11 12 12 13 14 14 15 17 18 19 20 20 20 20 20 21 21 21 21 22 22 21 20 19 18 17 16 15 14 13 12 11 10 9 8 8 7 7 7 8 7 7
9 10 11 11 12 12 13 14 15 17 18 19 20 20 20 20 20 21 21 21 22 23 23 22 20 19 19 18 17 16 16 15 14 13 12 11 10 10 9 9 9 8 7
9 9 10 10 10 11 11 12 14 15 16 18 19 20 20 20 20 21 21 21 21 22 23 23 22 21 20 19 19 18 18 17 16 15 14 13 12 11 11 10 10 10 9

GEFSMW_500_meanwind_060.txt.gz
Wind_Speed
34 35 35 35 36 37 38 39 41 43 43 44 45 46 45 45 45 44 43 42 40 39 38 35 34 34 33 33 33 32 30 29 28 26 24 23 23 23 23 23 22 21 20
34 34 34 34 34 35 36 37 38 39 40 41 43 44 45 45 45 44 44 44 42 39 38 37 34 34 34 32 32 32 32 31 30 28 26 26 25 25 25 24 24 24 23
31 31 31 31 31 32 33 33 34 35 36 37 38 39 41 42 43 43 43 43 43 40 38 36 35 34 32 31 30 30 30 31 31 29 28 28 27 27 26 25 25 26 26
26 26 26 26 27 28 28 29 29 31 32 33 34 35 36 38 39 40 41 41 41 40 40 37 35 34 34 32 30 29 29 30 31 29 29 29 29 28 26 26 26 26 26
22 22 23 23 23 23 24 25 25 26 26 27 28 29 31 34 35 37 38 38 37 37 37 36 35 34 34 33 31 30 29 30 29 29 29 28 28 28 28 28 27 27 28
19 19 20 19 19 19 19 19 19 20 21 22 23 25 26 28 30 33 34 34 34 34 33 32 33 32 32 32 31 29 29 29 29 29 30 29 28 28 29 28 28 28 28
17 17 17 17 17 17 17 16 15 16 16 17 18 19 21 22 24 26 29 30 31 31 31 31 31 31 31 31 31 30 30 30 30 29 29 30 30 31 31 31 31 30 30
15 15 16 16 16 15 15 14 14 14 14 13 13 14 14 16 18 20 22 25 27 28 28 28 29 30 30 30 31 32 30 29 29 30 30 31 32 32 33 32 32 31 32
15 16 16 17 16 16 14 14 14 14 13 12 11 10 9 10 12 14 17 19 21 23 25 27 28 29 30 31 31 30 30 30 30 31 32 32 31 32 32 33 33 33 33
17 17 17 18 18 18 17 16 16 15 14 13 12 9 8 7 6 7 9 13 16 19 21 24 26 27 29 30 31 30 30 30 30 32 33 32 32 32 33 33 34 34 34
17 18 17 18 19 20 19 19 18 17 16 15 13 11 9 8 7 6 5 7 10 12 15 19 22 24 25 27 28 29 30 30 31 32 32 32 31 32 33 33 33 34 34
18 18 18 18 19 19 20 19 19 19 18 18 16 14 12 9 8 7 6 6 7 9 11 14 17 21 24 25 27 28 29 29 29 29 30 30 31 32 32 32 32 32 32
19 19 20 20 20 20 19 19 19 19 18 17 17 16 14 13 11 10 8 7 6 6 8 10 12 15 18 22 25 26 27 27 27 27 28 29 30 30 30 30 30 30 30
19 20 21 21 21 21 20 20 20 20 20 20 19 18 16 14 12 11 11 9 8 7 6 7 8 11 13 16 18 21 23 24 26 26 27 27 28 29 28 28 28 29 29
20 21 21 22 23 23 22 21 21 21 20 20 20 20 19 17 15 14 13 12 10 9 7 7 7 8 10 12 14 16 18 20 22 23 25 25 26 26 27 27 27 27 28
19 20 21 22 22 22 23 22 22 22 21 21 21 20 19 18 17 17 15 14 12 11 9 8 8 8 9 10 11 13 15 16 18 20 21 22 23 24 24 24 25 24 24
19 20 21 21 22 22 22 22 22 22 22 22 21 21 20 19 18 18 18 17 16 14 12 11 10 9 8 8 9 11 13 14 15 16 18 19 20 21 21 20 20 20 20
18 18 19 20 21 21 22 22 22 22 22 22 22 21 21 20 20 19 19 19 18 16 14 13 11 10 9 7 7 8 10 11 12 14 14 16 16 16 17 17 16 17 17
17 17 18 19 20 21 21 22 22 22 22 22 22 22 22 22 21 20 20 20 19 18 16 15 13 11 10 8 7 6 6 8 9 10 10 10 11 12 12 13 14 14 14
16 16 17 17 18 19 20 21 22 22 22 22 23 23 23 22 22 22 22 22 21 19 18 17 15 13 11 9 7 7 5 4 3 4 5 6 7 7 9 10 11 11 12
15 16 16 16 17 18 19 20 21 22 22 22 23 24 24 24 23 23 23 23 22 21 20 19 17 16 13 11 10 9 7 5 4 2 1 4 5 6 7 7 8 8 8
15 15 15 15 16 17 18 18 19 21 22 22 23 24 24 24 24 24 24 24 23 23 22 20 19 18 17 15 13 12 10 9 8 7 6 5 4 5 7 7 7 6 6
14 14 14 14 15 15 16 17 18 19 21 21 22 23 24 24 25 24 25 24 24 24 23 22 21 20 19 18 17 16 14 12 11 11 10 10 9 8 8 8 7 6 6
13 13 13 13 14 14 15 15 16 18 19 20 21 22 23 23 24 24 25 25 25 24 24 23 22 22 22 21 20 19 18 16 15 14 13 13 12 11 10 9 8 7 6
12 12 12 13 13 13 13 14 14 15 16 18 19 20 21 22 23 24 24 24 25 24 24 24 23 23 22 22 22 21 20 20 18 16 15 15 13 12 11 10 9 8 8
12 12 12 12 12 12 12 12 12 13 13 15 16 17 18 20 21 22 23 23 24 24 24 24 23 23 23 22 22 21 20 20 19 18 17 16 14 13 12 11 10 10 9

GEFSMW_500_meanwind_066.txt.gz
Wind_Speed
30 30 29 29 29 29 29 30 31 33 33 34 35 36 37 37 38 37 37 37 37 37 36 35 34 33 31 30 29 29 29 30 30 30 29 28 27 25 24 23 23 22 21
26 26 26 26 26 26 27 27 28 29 29 30 31 33 34 35 35 36 37 37 37 37 37 37 36 35 33 31 30 29 29 30 31 31 31 30 29 28 27 26 26 25 24
23 23 23 22 23 23 23 23 24 24 25 26 27 28 29 31 32 33 34 35 36 36 36 36 36 35 35 35 33 31 30 30 30 30 30 31 31 31 30 29 28 27 26
21 20 20 19 19 19 19 19 20 20 21 22 23 25 26 28 29 30 31 32 32 33 34 34 35 36 36 35 34 33 31 32 33 32 30 31 32 33 33 31 30 29 28
20 19 17 17 17 16 16 16 17 17 18 19 19 20 21 23 25 26 28 29 30 31 31 32 34 36 36 36 35 35 33 33 33 33 32 32 32 32 33 33 33 32 31
20 18 17 16 16 16 15 15 16 16 16 15 16 16 17 18 20 22 24 26 28 29 30 31 33 35 36 36 36 37 35 35 34 34 33 33 33 33 32 33 34 34 34
19 18 18 17 17 17 17 16 16 15 14 14 14 13 13 14 14 16 18 21 24 26 28 30 31 33 35 35 35 37 37 37 36 35 34 34 34 34 34 34 34 34 34
18 18 18 18 18 17 17 17 16 16 14 13 13 12 11 10 10 11 13 15 18 21 24 26 29 31 34 35 36 37 36 37 37 36 36 36 36 35 35 35 34 33 33
18 18 19 19 18 18 18 17 17 17 15 14 13 12 10 10 8 7 8 10 12 15 19 23 25 28 31 34 36 36 36 35 35 36 37 36 35 35 35 35 35 34 33
19 19 20 20 19 18 18 17 17 17 16 15 14 12 12 10 8 7 7 7 9 11 13 16 20 23 26 30 32 33 34 33 32 33 34 34 34 34 34 35 35 35 35
21 21 20 21 21 21 20 19 18 19 18 18 17 14 13 12 10 9 7 7 7 8 10 13 16 18 22 24 27 30 32 33 33 33 34 34 33 33 34 34 35 35 36
21 21 21 21 21 22 22 21 20 19 19 19 18 16 15 14 13 11 10 9 7 7 8 9 12 15 18 20 23 26 29 30 32 32 32 33 33 34 35 35 35 35 35
21 21 22 22 22 22 22 22 21 21 20 20 19 18 16 16 15 14 13 11 9 7 7 8 9 11 14 17 19 22 25 26 27 29 30 31 31 32 33 34 35 34 33
20 21 21 22 22 22 23 23 22 22 22 21 20 19 18 17 16 15 14 13 11 9 8 7 6 8 10 12 15 17 20 22 23 25 26 27 29 29 30 31 31 31 32
20 21 22 22 22 22 22 23 23 23 23 23 22 21 20 18 17 17 16 15 13 11 9 7 6 6 7 9 12 14 16 18 20 22 23 24 25 26 27 28 28 28 28
19 20 21 22 22 22 23 23 23 23 23 23 23 23 22 21 20 19 18 17 15 14 12 9 7 5 5 6 9 11 13 14 16 18 20 22 23 24 25 25 25 24 24
18 19 20 21 22 22 23 23 23 23 23 23 23 23 23 22 21 21 20 18 17 16 14 11 8 6 5 5 6 9 10 12 14 16 17 18 19 21 22 22 21 20 21
17 18 19 20 21 21 22 23 23 23 23 24 24 24 23 23 22 22 21 21 19 18 16 14 11 9 7 5 4 5 7 9 11 13 14 15 16 17 17 18 19 19 19
17 17 18 19 19 20 21 22 23 23 23 24 24 25 24 24 23 23 22 22 21 20 18 16 14 12 9 7 4 3 3 5 8 10 11 12 13 14 14 15 16 16 17
16 16 17 18 18 19 19 20 21 22 23 24 24 25 25 24 24 23 23 22 22 22 20 18 17 15 13 10 7 5 2 2 4 6 8 10 11 11 11 12 13 14 14
15 15 16 16 17 18 18 19 19 20 21 22 24 25 25 24 24 24 24 23 23 23 22 20 19 18 16 14 12 10 8 7 5 5 6 7 9 10 10 10 10 11 12
14 14 14 15 15 16 16 17 18 18 19 20 22 23 23 24 24 24 24 24 24 23 23 22 21 20 19 17 16 14 13 11 9 8 7 7 7 8 10 10 10 10 10
13 13 14 14 14 15 15 15 16 16 17 18 19 20 21 22 23 24 24 24 24 24 23 23 22 21 20 19 17 17 16 15 13 11 10 9 9 9 10 10 9 10 10
13 13 13 13 14 14 14 14 14 14 15 16 17 17 18 19 21 22 23 23 23 23 23 23 22 22 21 20 19 18 17 17 16 14 12 11 11 10 10 9 9 9 9
13 14 14 13 13 13 13 13 13 13 13 14 14 15 15 16 17 19 20 21 21 21 21 22 22 21 20 20 19 18 17 16 16 15 14 13 12 11 11 10 10 10 10
14 14 14 14 14 13 13 13 13 12 12 12 12 13 13 14 14 15 16 17 19 19 19 19 20 20 20 19 18 17 16 16 15 14 13 13 12 12 11 11 10 10 9

GEFSMW_500_meanwind_072.txt.gz
Wind_Speed
24 24 24 23 23 23 22 22 22 23 23 24 25 26 27 29 30 32 33 36 37 38 38 38 39 39 38 36 34 31 30 29 28 28 28 28 29 29 27 25 23 22 21
22 22 21 21 20 19 19 18 18 19 20 21 22 23 24 25 27 28 30 33 35 37 38 40 40 40 40 39 37 35 33 32 30 28 28 30 29 29 29 28 27 26 25
20 20 20 19 19 18 17 17 17 17 18 18 19 19 20 21 22 24 25 28 30 33 36 39 40 41 41 41 39 37 36 34 32 31 30 28 29 30 31 30 30 29 28
20 20 20 19 18 18 17 17 16 16 16 16 17 17 18 19 20 21 22 24 26 29 32 35 38 40 41 42 42 40 38 37 35 34 32 31 29 31 31 30 31 32 32
19 20 20 19 19 18 17 17 17 16 16 15 15 15 16 17 18 19 20 22 24 26 28 31 35 38 40 42 42 42 41 39 38 37 35 34 32 32 32 31 31 32 33
20 20 20 20 20 19 18 17 17 17 16 15 15 14 14 14 15 16 17 19 21 23 25 28 31 34 38 40 41 42 43 42 41 39 37 36 35 34 34 34 33 33 33
20 21 20 21 21 20 18 18 18 18 16 15 15 14 13 13 14 14 15 17 19 20 23 25 28 31 34 38 40 42 43 43 42 42 40 38 38 36 36 36 36 35 34
20 20 20 21 21 20 20 19 19 19 18 16 16 14 13 13 13 13 14 15 16 17 19 21 24 28 31 34 37 39 42 43 43 43 43 42 40 39 39 38 37 36 36
21 21 21 21 22 21 20 20 19 19 18 18 18 16 15 14 13 12 12 12 13 14 16 18 21 24 28 31 35 37 38 40 42 43 43 42 41 40 39 39 39 37 36
21 21 21 22 22 21 21 20 20 20 19 19 19 18 17 15 14 13 12 11 11 12 14 15 18 21 24 28 31 34 36 37 39 41 42 43 42 41 40 40 39 39 38
21 21 22 22 23 23 22 21 21 21 21 21 20 20 18 17 16 15 13 12 11 12 12 13 15 17 20 24 27 29 32 34 36 38 40 41 41 41 40 40 39 39 39
21 21 21 22 22 23 23 22 23 23 22 22 22 21 19 18 17 16 15 14 12 11 10 10 11 13 16 18 20 23 27 29 31 34 36 38 37 39 38 38 39 39 38
20 21 21 21 22 22 22 23 23 24 24 23 23 23 22 20 19 18 17 16 14 12 11 9 9 10 12 14 16 18 20 23 26 29 31 33 34 35 35 35 36 36 37
19 20 21 21 22 22 22 22 23 24 24 25 25 24 24 22 21 20 20 18 16 14 12 10 8 7 8 10 12 14 16 18 21 23 26 28 30 32 32 32 33 34 33
19 20 20 21 22 22 22 22 22 23 24 25 25 25 25 24 23 22 21 20 19 17 15 13 10 7 6 6 8 11 13 14 16 18 21 24 27 28 29 28 28 29 30
18 19 20 20 21 22 22 23 23 23 24 24 25 25 25 26 25 24 23 22 21 19 18 16 13 10 6 5 5 7 10 11 13 14 17 19 22 22 23 25 25 25 26
18 18 19 19 20 21 22 23 23 23 24 24 24 25 26 26 26 26 25 23 22 21 19 18 16 12 8 6 4 4 6 9 11 12 13 15 17 18 19 21 22 23 23
17 18 18 19 19 20 21 22 22 23 23 24 24 24 25 26 27 26 26 26 24 22 21 20 18 15 12 8 5 3 3 5 7 8 10 12 13 14 16 17 17 19 19
17 17 18 18 18 19 19 20 21 22 22 23 23 24 24 25 26 27 27 27 26 24 23 22 20 18 15 12 9 5 2 1 4 5 7 9 10 11 13 14 15 15 16
16 17 17 17 18 18 18 19 20 20 21 21 22 23 24 24 25 26 27 27 27 26 24 23 22 20 18 16 13 10 7 3 0 2 4 6 8 9 11 12 13 14 15
16 16 17 17 17 18 18 18 18 19 19 20 21 21 22 23 24 25 25 26 26 26 25 24 23 21 20 18 17 14 12 8 5 3 2 4 6 7 9 11 11 12 12
16 16 16 17 17 17 17 18 18 18 18 19 19 20 20 21 22 23 23 24 25 25 24 23 23 22 21 19 17 16 14 12 10 7 5 4 5 6 6 8 9 9 10
17 17 17 17 17 17 17 17 17 17 17 18 18 18 19 19 20 20 21 22 23 23 23 22 22 21 21 19 18 17 16 14 12 11 8 6 5 5 5 6 7 7 8
18 18 18 18 18 18 18 18 18 18 17 18 18 18 18 18 18 18 19 19 20 20 21 21 20 20 20 19 17 17 15 14 12 11 9 8 6 5 5 5 5 5 6
20 19 19 19 19 19 19 18 18 18 18 18 18 18 17 17 17 17 16 16 17 17 18 19 19 18 17 17 16 15 15 14 13 11 9 8 6 6 5 5 4 4 5
22 22 21 21 21 21 20 20 20 19 19 19 18 18 18 17 17 16 16 15 14 14 15 15 16 16 16 15 15 14 13 13 12 11 10 8 6 6 5 4 4 4 4

GEFSMW_500_meanwind_078.txt.gz
Wind_Speed
20 20 20 20 20 20 20 18 17 17 17 17 18 19 21 23 25 27 29 30 32 34 36 37 39 40 40 40 39 38 38 35 33 32 32 31 31 30 30 29 27 27 26
20 20 20 20 20 20 18 17 15 15 15 15 16 17 18 19 20 22 25 28 30 32 33 35 37 40 41 41 41 40 39 38 37 34 33 33 33 32 32 31 30 30 29
19 20 20 20 19 18 17 16 15 15 14 14 15 15 16 16 17 19 21 23 26 29 31 33 35 37 39 40 41 42 41 40 39 38 35 34 33 33 34 33 32 32 31
18 19 20 19 18 18 18 17 16 15 14 14 14 14 14 14 15 17 18 20 22 26 29 31 33 35 37 39 41 42 43 43 41 41 39 36 36 35 35 34 34 35 34
18 19 19 19 18 18 18 18 16 15 15 14 13 12 13 13 13 14 16 18 20 23 26 29 31 33 35 37 40 41 42 43 43 43 42 40 38 36 35 35 35 35 36
18 19 19 19 19 19 19 19 18 17 16 15 14 13 13 13 13 13 14 15 17 20 23 26 28 30 32 34 37 39 40 42 44 44 44 43 41 39 37 36 36 36 37
18 19 19 20 20 19 20 19 19 18 17 17 16 15 14 13 12 12 12 13 15 17 19 22 25 27 29 31 34 36 38 40 42 44 45 45 44 42 39 38 37 37 38
18 18 19 20 20 20 21 20 20 20 19 19 18 17 16 15 14 13 13 13 14 15 17 20 22 25 27 29 31 33 35 38 41 43 45 44 44 43 41 39 38 38 38
18 18 19 19 20 20 21 22 21 21 21 21 20 19 19 17 15 14 12 12 12 14 16 18 20 23 25 27 29 31 34 36 39 41 43 44 44 44 44 41 40 39 38
18 18 19 19 19 20 21 22 23 23 23 22 22 21 20 19 18 16 14 13 12 12 14 16 18 20 22 25 27 29 32 34 37 38 40 42 44 44 44 44 42 40 40
18 19 19 19 19 20 20 22 23 24 23 23 23 23 22 21 20 18 16 15 13 12 12 13 14 16 18 21 24 26 28 31 33 35 37 39 42 43 43 44 43 42 41
18 19 19 19 19 20 20 21 22 23 24 24 24 24 24 24 22 20 19 18 16 14 13 13 12 13 14 16 19 21 24 27 29 31 34 36 39 40 41 42 42 42 41
17 18 18 19 19 20 20 21 21 22 23 24 25 25 25 25 24 23 21 20 19 16 14 12 11 11 11 12 14 17 19 22 25 27 29 32 34 37 38 39 40 41 40
16 17 17 18 19 19 20 21 21 22 22 23 24 25 25 25 25 25 24 22 21 20 18 15 13 10 9 8 9 11 14 17 20 23 26 28 29 32 34 36 37 38 38
16 16 17 17 18 19 19 20 21 21 22 22 23 24 25 25 26 25 25 24 23 22 20 18 16 12 9 7 6 7 10 12 15 17 20 24 26 28 29 32 34 35 36
15 16 16 17 17 18 19 20 20 21 22 22 23 23 24 25 25 26 26 25 24 23 22 20 18 15 11 9 7 5 4 7 10 13 16 19 21 25 26 28 30 31 32
14 15 16 16 17 18 18 19 20 21 21 22 22 23 23 24 25 26 26 26 25 25 23 22 20 17 14 12 9 6 4 3 6 9 12 15 17 20 24 26 27 28 28
14 15 16 16 17 17 18 19 19 20 21 21 22 22 23 23 24 25 25 26 26 25 24 23 21 19 17 14 12 10 6 3 3 5 7 10 13 14 18 20 23 24 23
15 16 16 17 17 17 18 18 19 19 20 21 21 21 21 22 23 24 24 25 25 25 24 24 23 21 19 17 14 13 9 6 3 2 4 6 8 10 12 14 18 20 21
15 16 16 17 17 18 18 18 19 19 19 20 20 21 21 21 21 22 23 24 24 24 23 23 22 21 20 18 17 15 12 9 6 2 2 4 6 8 9 10 13 16 18
16 16 17 17 17 18 18 18 19 19 19 19 20 20 20 20 20 21 21 22 23 22 22 21 21 20 20 19 18 17 15 13 10 6 2 1 4 5 7 8 9 11 13
17 17 18 18 18 18 18 19 19 19 19 19 19 19 19 19 20 19 20 20 21 21 20 20 20 19 19 18 17 17 16 14 12 9 6 2 2 4 5 7 8 9 11
18 18 19 19 19 19 19 19 19 19 19 19 19 19 19 19 19 19 19 18 19 19 19 18 18 18 18 17 17 16 16 14 12 10 8 5 2 1 3 5 6 7 8
20 20 20 20 20 20 20 20 20 20 20 20 20 20 20 20 19 19 18 18 17 17 17 17 17 17 16 16 16 15 15 14 13 10 8 7 4 1 1 2 4 5 6
22 22 22 22 22 22 22 22 21 21 21 21 20 20 20 20 20 19 19 18 17 17 17 16 16 16 16 15 15 15 14 13 13 11 9 7 5 2 1 1 3 3 4
24 24 25 25 25 25 24 23 23 23 22 22 22 21 21 20 20 20 20 19 19 18 17 16 16 16 15 15 14 14 13 12 12 11 8 6 5 3 1 1 2 3 4

GEFSMW_500_meanwind_084.txt.gz
Wind_Speed
19 19 19 20 20 20 20 20 19 18 17 15 15 15 15 16 16 18 20 22 23 26 27 29 30 32 32 33 33 33 34 34 34 33 32 31 31 30 29 29 27 27 26
18 18 19 19 20 20 20 20 19 18 17 15 14 14 14 15 15 16 17 19 21 23 25 27 28 30 31 33 33 34 35 34 34 34 34 31 31 30 30 30 30 29 28
17 18 19 19 20 20 20 20 19 18 17 15 15 14 14 14 14 15 15 17 18 20 22 24 26 28 30 31 33 34 35 35 35 34 34 33 33 31 31 31 32 31 31
17 18 18 19 20 20 20 20 20 19 18 17 16 15 14 14 13 14 14 15 16 17 19 22 24 26 28 30 32 34 35 35 35 36 36 35 34 33 31 31 32 33 32
16 17 18 19 20 20 20 20 20 20 19 19 18 16 15 14 13 13 14 14 15 15 17 19 21 24 26 28 30 32 34 35 35 36 37 37 37 35 34 33 32 32 33
16 16 17 18 19 20 21 21 21 21 20 20 19 18 17 16 15 14 14 13 14 14 15 17 19 22 24 26 28 30 32 33 34 35 36 37 37 37 37 36 35 34 34
15 16 17 18 19 20 21 21 22 22 21 21 21 20 19 18 17 16 15 14 13 13 14 15 17 19 21 23 26 28 30 31 32 33 35 36 38 38 38 39 37 36 35
15 16 17 18 19 19 21 22 22 23 23 22 22 21 20 20 19 18 17 15 14 14 14 14 15 17 18 21 23 25 27 29 31 32 34 35 36 37 38 39 39 38 36
15 16 16 17 18 19 20 21 22 23 23 23 23 22 22 21 21 20 19 17 16 15 14 14 14 15 17 18 20 22 24 26 28 30 32 33 35 35 37 38 39 40 39
15 15 16 17 18 19 20 21 22 23 23 24 24 24 23 22 21 21 21 19 17 15 15 14 13 13 15 16 18 19 21 24 26 28 29 31 32 33 34 36 37 38 38
14 15 16 17 18 18 19 21 22 23 24 24 24 24 25 24 23 22 21 21 19 17 16 15 13 12 12 13 14 16 18 20 23 25 27 28 31 32 33 34 36 36 36
14 15 15 16 17 18 19 20 21 22 23 24 24 24 25 25 25 24 23 22 21 19 17 16 14 13 12 11 12 13 15 17 19 21 23 25 27 29 31 32 34 35 36
13 14 15 16 17 18 19 20 21 22 22 23 24 24 24 25 26 26 25 24 23 22 20 18 16 14 12 11 10 10 12 14 15 17 19 22 24 26 29 30 31 33 35
13 14 15 16 17 18 19 20 20 21 22 22 23 23 24 25 26 26 26 25 24 23 22 20 18 16 14 11 10 9 9 10 12 14 15 17 20 23 26 28 29 31 33
13 14 15 16 17 17 18 19 20 21 21 21 22 22 23 24 25 25 25 25 25 24 23 22 20 18 16 14 12 11 10 9 9 10 11 13 16 19 22 25 27 28 30
13 14 15 16 17 17 18 19 20 20 21 21 21 22 22 23 24 24 25 25 25 24 23 23 22 20 19 17 15 13 12 9 8 7 8 9 12 15 17 20 22 25 26
14 15 16 17 17 18 19 19 19 20 20 21 21 21 21 22 23 23 24 24 24 24 23 23 23 22 21 20 18 16 14 12 9 6 6 7 9 11 13 16 18 21 23
14 15 16 17 18 18 19 19 19 20 20 20 21 21 21 21 22 22 23 23 23 23 23 22 23 23 22 21 20 18 16 14 11 8 6 6 6 8 9 12 15 16 19
14 15 16 17 18 18 19 19 19 19 20 20 20 20 20 20 21 21 21 22 22 22 22 22 22 22 22 22 21 20 18 17 14 11 8 6 6 6 7 9 12 15 17
15 16 17 18 18 19 19 19 19 19 20 20 20 20 20 20 20 20 20 20 21 20 21 21 21 21 21 22 22 21 20 19 17 14 11 8 6 5 6 8 10 12 15
16 17 18 18 19 20 20 20 20 20 20 20 20 20 20 20 20 20 20 20 20 20 20 20 20 20 20 20 21 21 20 19 18 16 14 11 8 6 6 7 8 9 11
18 18 19 19 20 20 21 21 21 21 21 21 21 21 21 21 20 20 20 20 20 19 19 19 19 19 19 19 19 19 19 19 18 17 15 13 10 8 7 6 6 7 8
19 19 20 21 21 22 22 23 23 23 23 23 23 22 22 22 21 21 20 20 20 19 19 19 19 19 19 19 19 19 18 18 17 17 16 14 12 11 9 7 6 6 7
20 21 22 22 23 24 24 25 25 25 25 24 24 24 23 23 22 22 21 21 20 20 20 19 19 19 19 19 19 18 18 17 17 16 15 14 13 12 11 10 8 8 7
22 23 24 25 25 26 27 27 27 27 27 26 26 25 25 24 24 24 23 23 22 22 21 21 20 20 19 19 19 18 18 17 17 16 15 14 13 12 12 10 9 9 8
25 25 26 27 28 29 29 29 28 28 28 28 28 27 27 26 25 25 25 24 24 24 23 23 22 21 21 20 20 19 18 18 17 17 16 15 14 13 12 11 10 9 9

GEFSMW_500_meanwind_090.txt.gz
Wind_Speed
16 17 17 18 18 19 19 18 18 18 17 16 15 13 12 11 10 10 10 12 14 17 18 21 24 25 26 28 29 30 31 30 30 31 30 30 30 31 30 30 29 28 27
16 17 18 18 19 19 19 19 19 19 18 17 16 14 13 12 11 10 10 11 12 14 16 18 21 23 25 27 28 29 30 31 31 30 31 32 31 31 31 31 31 31 30
15 16 17 18 18 18 19 19 19 19 19 19 18 17 15 14 13 11 10 10 11 13 14 16 18 21 24 25 27 27 28 30 32 31 31 32 32 32 31 32 31 32 32
14 15 16 16 17 18 19 20 20 20 20 19 19 18 17 16 15 13 12 11 11 12 13 14 16 18 21 23 25 27 28 29 31 32 32 32 33 33 32 33 33 33 33
13 14 15 16 17 19 20 20 20 20 21 20 19 18 18 17 16 15 14 13 12 12 12 12 14 16 18 20 23 25 27 29 30 31 32 33 33 33 33 34 34 33 34
12 13 14 15 16 18 20 21 21 21 21 21 20 19 18 18 17 16 15 14 13 12 11 11 11 12 14 17 19 22 24 27 29 30 31 33 34 35 35 35 34 33 34
12 12 14 15 16 18 19 20 21 21 21 21 20 20 20 19 19 18 16 15 13 12 11 10 10 10 11 13 15 18 21 24 26 28 29 32 33 34 34 35 36 35 33
11 12 13 15 16 17 18 20 21 22 22 21 21 21 21 21 21 20 18 16 14 12 11 10 9 8 9 10 12 15 17 20 23 25 27 30 31 33 34 35 35 36 35
11 12 13 14 16 17 18 19 21 21 22 22 21 21 22 22 22 21 19 18 16 14 12 10 9 8 8 8 10 11 14 17 20 22 25 27 30 31 32 34 35 36 35
10 11 13 14 15 16 17 19 20 21 21 22 22 22 22 22 22 22 21 19 18 15 13 12 10 9 8 6 7 8 10 13 16 19 22 25 28 29 31 33 34 36 35
10 11 12 14 15 16 17 18 20 20 20 21 22 22 22 22 22 22 22 21 19 17 15 13 12 10 9 8 7 7 9 10 13 16 20 22 24 27 29 31 33 35 36
9 11 12 13 15 16 17 18 19 20 20 21 21 22 22 22 22 22 22 21 20 19 18 16 14 12 11 10 8 8 9 9 10 12 15 19 21 24 26 28 31 32 34
9 10 12 13 14 16 17 18 18 19 20 20 21 21 22 22 22 21 21 22 21 21 19 18 16 14 13 12 10 9 9 9 10 11 13 15 18 21 23 25 28 30 32
9 10 11 13 14 15 16 17 18 18 19 20 20 21 21 21 21 21 21 21 21 21 21 20 18 16 15 14 13 12 10 9 9 9 10 12 15 17 20 22 24 27 29
9 10 11 12 14 15 16 17 18 18 19 19 20 20 21 21 21 20 20 20 20 20 20 20 19 18 17 16 15 14 13 11 9 8 7 9 11 13 16 18 21 23 26
9 10 11 13 14 15 16 17 17 18 18 19 19 20 20 20 20 20 19 19 19 19 20 19 19 18 18 17 16 16 15 14 11 9 7 7 7 8 11 13 16 19 22
9 10 11 12 14 15 16 17 17 18 18 18 19 19 19 19 20 19 19 18 18 18 19 19 19 19 18 17 17 16 16 15 13 11 9 7 6 7 8 10 12 15 18
10 11 12 13 14 15 16 17 18 18 19 19 19 19 19 19 19 19 18 18 18 18 18 18 18 18 18 18 18 18 17 16 15 13 11 9 7 6 7 8 10 12 15
11 12 13 14 15 16 16 17 18 19 19 19 20 20 19 19 19 19 18 18 17 17 17 17 17 18 18 18 18 18 18 17 16 15 13 10 8 7 6 7 8 10 12
12 13 13 14 15 16 17 18 19 20 20 20 21 20 20 20 19 19 18 18 17 17 17 17 17 17 18 18 17 17 17 17 17 16 15 12 9 7 7 7 7 9 10
13 14 14 15 16 17 18 19 20 21 22 22 22 21 21 20 20 19 19 18 18 18 18 18 18 17 17 18 17 17 17 17 16 16 15 13 12 10 8 7 7 8 9
15 15 15 16 17 18 19 20 21 22 23 23 23 22 22 21 21 20 20 19 19 19 18 18 18 18 18 18 18 17 17 16 16 15 14 13 12 12 10 9 8 7 8
16 16 17 17 18 19 21 22 23 23 24 24 24 24 24 23 23 22 21 21 20 20 20 19 19 19 19 18 18 18 17 17 16 15 14 14 13 13 12 11 10 9 9
17 18 18 19 20 21 22 23 24 25 25 25 25 25 25 25 24 24 23 23 22 21 20 20 20 20 20 20 19 19 18 18 17 17 16 15 15 14 13 13 12 11 10
19 20 20 21 22 23 24 25 26 26 27 27 27 27 26 26 25 25 24 24 23 22 22 21 21 21 21 21 21 20 20 20 19 19 18 17 17 16 16 15 14 13 13
22 22 22 23 24 25 25 26 27 27 28 28 28 28 28 27 26 25 25 25 24 24 24 23 23 22 22 22 22 22 22 21 21 21 20 20 19 19 18 18 17 17 16

GEFSMW_500_meanwind_096.txt.gz
Wind_Speed
9 11 12 14 15 16 18 18 19 18 18 18 18 18 17 16 14 13 12 12 12 13 15 16 17 19 21 24 26 27 28 28 28 29 29 30 30 30 30 30 30 29 28
8 10 11 13 15 16 18 19 19 19 19 18 19 18 17 16 15 14 13 13 12 12 13 15 16 18 20 22 25 27 27 28 28 29 30 30 31 31 31 31 31 30 30
7 9 11 13 15 16 18 19 20 20 19 19 19 19 19 18 17 16 14 13 12 12 12 13 14 16 18 20 23 25 27 28 28 28 29 30 31 31 31 32 32 32 31
7 9 10 12 14 16 18 19 20 20 20 20 20 20 19 19 18 17 15 14 13 12 11 12 13 14 15 17 19 22 24 26 26 27 29 29 30 31 32 33 34 33 33
7 9 10 12 14 16 17 19 20 20 20 20 20 20 20 19 19 18 16 15 13 12 11 10 10 11 13 14 16 18 21 23 25 26 28 29 29 31 32 33 35 35 34
7 8 10 12 14 15 17 19 20 20 20 21 20 20 20 20 20 19 17 15 14 12 11 9 9 8 9 11 12 14 18 20 23 24 26 27 28 31 32 33 34 35 35
6 8 10 12 13 15 17 18 19 20 20 20 21 21 20 21 20 20 19 17 15 14 12 10 8 7 7 8 10 12 15 17 20 22 24 25 27 30 31 32 34 35 35
6 8 9 11 13 14 16 18 19 20 20 20 21 21 21 21 21 20 19 18 16 15 13 11 10 7 5 6 7 9 11 14 16 19 21 23 24 27 30 32 33 35 36
6 7 9 10 12 14 16 17 19 19 20 21 21 21 21 21 21 20 20 19 17 15 14 13 11 9 6 5 6 7 9 11 13 16 19 21 22 24 27 30 31 33 35
5 7 9 10 12 13 15 16 18 19 20 20 21 21 21 21 21 20 20 19 18 16 15 14 12 10 9 7 5 5 7 8 11 13 16 18 20 22 24 27 28 31 34
5 7 8 10 11 13 14 15 17 18 19 20 20 20 20 20 20 20 20 19 19 17 16 15 13 12 10 9 7 5 6 7 9 11 13 16 18 20 22 25 28 30 32
5 7 8 9 11 12 14 15 16 17 18 19 20 20 20 20 20 20 20 19 19 18 17 16 15 14 12 10 9 7 6 6 7 9 11 14 16 18 20 23 25 27 30
5 6 8 9 11 12 13 14 15 17 18 19 19 20 19 19 19 19 19 19 19 18 18 17 15 15 14 12 10 9 8 7 7 8 9 11 13 16 18 20 23 25 27
5 6 8 9 10 11 12 14 15 16 17 18 19 19 19 19 19 19 19 19 19 19 18 17 16 16 15 14 12 10 9 9 9 9 8 9 10 12 14 17 20 22 25
5 6 7 9 10 11 12 13 14 16 17 18 18 19 19 19 18 18 18 18 18 18 18 17 16 16 16 16 15 13 12 11 10 10 10 9 9 10 11 13 16 19 22
6 7 8 9 10 11 12 13 14 15 16 17 18 18 18 18 18 18 18 18 18 18 17 17 16 16 16 16 16 15 14 13 12 12 12 10 9 9 9 11 12 14 17
7 8 8 9 10 11 12 13 14 15 16 17 18 18 17 17 17 18 17 17 17 17 17 16 15 15 15 15 15 15 15 14 14 13 13 12 10 10 9 9 9 10 12
8 9 9 10 10 11 12 13 14 15 16 17 17 18 18 17 18 18 17 17 17 16 16 16 15 15 15 14 14 15 15 14 14 14 14 14 12 11 10 9 9 10 11
10 10 10 10 11 11 12 13 14 15 16 17 17 18 18 18 18 18 18 17 17 16 16 16 15 15 15 14 14 14 15 15 15 14 14 14 14 13 12 11 10 9 10
12 11 11 11 12 12 13 13 14 15 16 17 18 18 18 19 19 19 18 17 17 16 16 16 15 15 15 14 14 14 14 15 15 14 14 14 14 14 13 12 11 10 9
13 13 13 13 13 13 14 14 15 16 17 17 18 19 19 19 19 19 19 18 17 17 17 16 16 15 15 15 15 15 15 15 15 14 14 14 14 14 13 13 12 11 11
16 15 15 15 15 15 15 16 16 17 17 18 19 19 20 20 20 21 20 19 18 17 17 17 17 17 16 16 16 16 16 16 16 15 15 14 14 14 14 14 13 13 12
18 17 17 16 16 16 17 17 18 18 19 19 20 21 21 21 21 22 22 21 19 18 18 18 18 18 18 18 17 17 17 17 17 16 16 16 15 15 15 14 14 14 13
20 19 19 18 18 18 19 19 19 20 20 21 21 22 22 22 23 23 23 22 21 20 20 20 19 19 19 19 19 19 18 18 18 18 17 17 17 17 17 16 16 15 15
22 22 21 21 21 20 21 21 21 21 22 22 23 23 23 23 24 24 24 23 23 22 22 21 21 21 21 20 20 20 19 19 19 19 19 19 19 19 18 18 18 18 18
25 24 24 23 23 23 23 23 23 23 23 24 24 24 24 25 25 25 25 24 24 23 23 23 22 22 22 22 22 21 21 20 20 20 21 21 21 21 21 21 21 21 21

GEFSMW_500_meanwind_102.txt.gz
Wind_Speed
4 4 5 6 8 9 11 13 14 15 15 15 15 16 16 15 14 13 12 11 11 11 12 13 14 16 17 19 21 24 25 27 28 29 29 28 28 29 29 28 29 29 28
3 4 5 6 8 10 12 13 14 15 15 16 16 16 16 16 15 14 13 12 11 10 10 11 12 14 15 17 19 22 24 25 27 28 28 28 28 28 30 29 29 30 30
3 4 5 6 8 10 12 13 14 15 15 16 16 16 16 16 16 15 14 12 11 10 10 10 10 12 13 14 17 19 21 23 25 27 28 28 28 29 29 30 29 30 30
3 4 5 6 8 10 12 13 14 15 15 16 16 17 17 17 16 16 14 12 11 10 9 8 8 9 10 12 14 16 18 21 23 25 27 27 27 27 28 29 30 31 32
3 4 5 6 7 10 11 13 14 15 15 16 16 17 17 17 16 16 15 13 12 10 8 7 6 6 7 8 10 13 16 19 21 23 24 25 25 25 27 28 30 32 33
3 3 4 6 7 9 11 12 13 14 16 16 16 17 17 17 16 16 15 14 13 11 9 8 6 5 5 5 7 10 12 15 18 20 22 23 23 24 25 27 29 31 33
3 3 4 5 7 8 10 11 13 14 16 16 17 17 17 17 16 15 15 15 14 12 10 9 7 5 3 3 5 7 9 12 15 17 20 21 21 22 24 25 27 29 31
4 3 4 5 6 8 9 10 12 14 15 16 16 17 17 17 17 16 15 15 15 14 12 10 8 6 4 2 3 4 6 8 12 15 17 19 20 20 22 24 25 27 29
4 3 3 4 6 7 9 10 11 13 15 15 16 16 17 17 17 17 16 15 14 14 13 11 9 7 6 3 2 3 5 6 8 12 15 17 19 20 21 22 24 26 28
4 3 3 4 5 7 8 9 11 12 14 15 15 16 16 17 16 17 17 16 15 14 13 12 10 9 7 5 3 2 3 5 6 9 11 14 17 19 20 20 22 24 26
4 4 3 4 5 6 7 8 10 12 13 14 15 15 15 16 16 16 16 17 16 15 13 12 11 9 8 6 5 3 2 3 4 6 8 11 14 16 18 19 20 22 24
5 4 4 4 5 6 7 8 9 11 12 13 14 15 15 15 16 16 16 16 16 16 14 13 12 11 9 8 7 5 4 2 3 5 7 9 11 14 16 17 19 21 23
7 6 5 5 5 5 6 7 8 10 11 12 13 14 14 15 15 16 16 16 16 16 15 13 12 12 10 9 7 6 5 4 3 3 4 6 8 11 13 14 16 18 20
8 7 6 5 5 5 6 6 8 9 10 11 12 13 13 14 15 15 15 16 16 16 15 14 13 12 10 9 8 7 6 5 5 4 4 5 6 7 10 12 14 15 17
9 8 7 7 6 6 6 6 7 8 9 11 11 12 13 13 14 14 15 15 15 15 15 14 13 12 11 10 9 8 7 7 6 5 5 5 5 6 8 9 11 13 15
10 9 9 8 7 7 7 7 7 8 9 10 11 12 12 13 13 14 14 14 14 14 14 14 13 12 11 10 10 9 8 8 7 6 6 6 6 6 7 8 10 12 13
12 11 10 9 9 8 8 8 8 8 9 10 10 11 12 12 13 13 14 14 14 14 14 13 12 12 11 11 10 9 9 8 8 7 7 7 7 7 8 8 9 10 11
13 13 12 11 10 10 9 9 9 9 9 10 10 11 12 12 13 13 14 14 14 14 14 13 12 12 12 11 11 10 9 9 9 8 8 8 7 8 8 8 9 9 10
15 14 14 13 12 11 11 11 10 10 10 10 11 11 12 12 13 13 14 14 14 14 14 14 13 12 12 12 12 11 11 11 10 10 9 9 9 8 8 8 9 9 9
17 16 16 15 14 13 13 12 12 12 11 11 11 12 12 13 13 14 14 14 15 15 15 14 14 13 13 13 13 13 12 12 11 11 10 10 10 10 10 10 9 10 10
19 18 18 17 16 16 15 15 14 14 13 13 13 13 14 14 14 14 15 15 15 15 15 15 15 15 14 14 14 14 13 13 12 12 12 11 11 11 11 11 11 11 11
21 20 20 19 19 18 17 17 16 16 15 15 15 15 15 15 15 15 16 16 16 16 16 16 16 16 15 15 15 15 15 15 14 14 14 14 13 13 13 13 13 13 13
23 22 22 21 21 20 20 19 18 18 17 17 17 16 16 17 17 17 17 17 17 17 17 17 17 17 17 17 17 17 17 17 16 16 16 16 16 16 15 15 15 15 15
26 25 24 24 23 23 22 22 21 20 19 19 19 18 18 18 18 18 18 18 19 19 19 19 19 18 18 18 18 18 18 18 19 19 18 18 18 18 17 17 17 17 17
28 28 27 26 26 25 25 24 23 23 22 22 21 20 20 20 20 20 20 20 20 21 20 20 20 20 20 20 20 20 20 20 20 20 20 20 20 20 20 20 20 20 20
31 30 30 29 28 28 27 27 26 25 25 24 23 23 23 22 22 22 22 22 22 22 22 22 22 22 22 22 22 22 22 22 22 22 22 22 22 22 22 22 22 22 22

GEFSMW_500_meanwind_108.txt.gz
Wind_Speed
5 6 7 8 9 11 12 14 15 16 18 18 19 19 19 18 18 18 18 17 16 15 14 13 13 14 14 14 16 18 20 21 24 24 25 26 27 27 26 27 28 27 27
5 6 7 8 9 11 12 14 15 16 17 18 19 19 19 18 18 18 18 17 16 15 14 13 12 12 12 12 13 15 18 20 22 23 25 25 26 27 27 27 27 29 28
6 5 7 8 9 11 12 13 15 16 17 18 19 19 19 18 18 18 18 17 16 15 13 12 11 10 10 11 11 12 15 17 19 22 23 24 25 25 27 27 27 28 29
7 7 8 8 9 10 12 13 14 16 17 18 18 19 19 18 18 18 18 17 16 14 13 12 10 9 8 9 10 10 11 14 16 19 22 23 24 25 26 27 27 28 28
8 8 8 9 9 10 12 13 14 15 16 17 18 18 18 18 19 18 17 16 16 14 13 11 9 7 7 7 7 8 10 11 13 16 19 22 23 24 25 26 26 26 27
9 9 9 9 9 10 11 12 13 15 16 17 17 18 18 18 18 18 17 16 16 14 13 11 9 7 6 5 5 6 8 9 11 13 16 19 20 22 23 24 23 24 26
9 9 8 8 9 10 11 12 13 14 15 16 17 17 18 18 18 18 17 16 16 15 13 12 10 7 6 4 4 5 6 7 9 11 13 16 18 20 21 22 22 22 24
9 8 8 8 8 9 10 11 12 13 14 15 16 17 18 18 18 18 17 16 15 15 14 12 11 9 6 4 3 4 5 6 7 9 11 13 16 18 19 20 20 21 22
9 9 8 8 8 9 10 11 11 12 13 14 15 17 18 18 19 18 17 16 15 15 14 13 12 10 8 5 3 3 4 5 6 7 9 11 13 15 17 18 18 19 20
10 9 8 8 8 9 10 10 11 12 13 13 15 16 17 18 18 18 17 16 15 15 15 14 12 11 9 7 5 4 3 3 4 6 8 10 12 13 15 16 18 18 19
11 10 9 9 9 9 9 10 10 11 12 13 14 15 16 17 18 18 18 17 16 16 15 14 13 11 9 8 6 5 4 3 3 4 5 8 10 12 14 15 16 16 17
11 11 11 10 10 9 9 10 10 11 11 13 14 15 15 16 17 18 17 17 16 16 16 15 14 13 11 9 8 6 4 3 2 2 3 5 7 10 12 14 15 16 16
12 12 12 11 11 10 10 10 10 11 11 12 13 14 14 15 16 17 17 17 16 16 16 16 15 13 12 10 9 7 5 4 3 2 2 4 6 7 9 11 13 14 15
13 13 13 12 12 11 11 11 10 11 11 11 12 13 14 14 15 16 16 16 16 16 15 16 15 14 13 12 10 8 7 6 4 4 3 3 5 6 8 9 10 12 13
14 14 14 14 13 13 12 11 11 11 11 11 11 12 13 14 14 15 15 16 16 15 15 15 14 14 13 12 11 9 8 7 6 5 4 4 4 5 7 8 9 11 12
15 15 15 15 15 14 13 13 12 11 11 11 11 12 12 13 14 14 14 15 15 15 15 14 14 13 13 12 11 10 9 8 7 6 6 5 6 6 7 8 9 10 11
17 17 17 17 17 16 15 14 14 13 12 12 11 12 12 13 13 13 14 14 14 14 14 14 14 13 13 12 11 10 9 9 8 8 7 7 7 7 7 8 8 9 10
19 18 18 19 18 18 17 16 15 14 14 13 13 13 13 13 13 13 14 14 14 14 13 13 13 13 13 13 12 11 10 10 9 8 8 8 8 8 8 8 9 9 10
20 20 20 20 20 20 19 18 17 16 16 15 14 14 14 14 14 14 14 14 14 14 14 13 13 13 13 13 13 12 11 10 10 9 9 9 9 9 9 9 10 10 11
22 23 22 22 22 22 21 20 20 19 18 17 17 16 16 15 15 15 15 15 15 15 14 14 14 14 14 14 13 13 12 12 11 11 11 10 10 10 10 10 11 11 11
25 25 24 24 24 24 23 23 22 21 20 20 19 18 17 17 17 16 16 16 16 16 15 15 15 14 14 14 14 14 13 13 13 12 12 12 12 12 12 12 12 13 13
27 27 27 27 26 26 25 25 24 24 23 22 21 20 19 19 18 18 18 17 17 17 16 16 16 15 15 15 15 15 15 14 14 14 14 14 14 14 14 14 14 14 14
30 30 30 29 29 28 28 27 26 26 26 25 24 23 22 21 20 20 19 19 19 18 18 17 17 17 16 17 17 16 16 16 16 16 16 16 16 16 16 16 16 16 16
33 33 32 32 31 31 30 29 29 29 28 27 26 25 24 24 23 22 21 21 20 20 19 19 18 18 18 18 18 18 18 18 17 17 17 18 18 18 18 18 18 18 18
37 36 35 34 33 33 33 32 31 31 30 29 28 28 27 26 25 24 24 23 22 22 21 21 20 20 20 20 20 20 20 20 20 20 20 20 20 20 20 20 20 20 20
40 39 38 38 37 36 35 34 34 33 32 32 31 30 29 28 27 27 26 25 25 24 23 23 23 22 22 22 21 21 21 21 22 22 22 22 22 22 22 22 22 22 22

GEFSMW_500_meanwind_114.txt.gz
Wind_Speed
3 3 3 4 6 7 9 10 12 13 15 16 17 18 18 19 19 19 19 18 18 17 16 14 13 12 12 13 14 16 18 20 23 25 26 27 28 29 30 29 28 28 28
3 3 4 5 5 7 9 10 12 13 14 16 17 18 18 19 20 19 19 18 17 17 16 15 13 12 11 11 12 14 17 18 19 22 25 27 28 28 29 29 28 28 29
3 4 4 5 5 7 9 10 12 13 14 15 16 17 18 19 20 20 19 18 17 17 16 15 13 11 10 9 10 12 14 16 17 20 22 25 27 27 29 29 29 29 29
3 4 5 5 6 7 9 10 11 12 13 15 15 17 18 19 20 20 19 18 17 16 16 14 12 10 8 7 7 9 11 13 15 18 20 22 25 26 27 28 29 29 29
3 4 5 5 6 7 8 10 11 12 13 14 15 16 17 18 19 20 19 18 18 17 16 14 12 9 7 5 5 6 8 10 13 16 18 21 23 24 25 27 28 28 28
4 4 5 5 6 7 8 9 10 11 12 13 14 16 17 18 19 19 18 18 18 17 16 14 12 9 6 4 3 4 6 8 9 12 15 18 20 23 24 25 27 28 27
5 5 5 5 6 7 8 9 10 11 12 13 14 15 16 17 18 18 18 18 17 17 16 15 12 9 6 4 2 2 5 6 8 9 12 15 18 21 22 23 25 26 26
5 5 6 6 6 7 7 8 9 10 11 12 13 14 15 16 17 18 18 17 17 17 16 15 13 10 7 5 3 1 2 4 6 8 10 12 15 18 20 21 22 23 25
6 6 6 7 7 7 7 8 9 10 11 12 13 14 14 15 16 17 17 17 17 17 16 15 13 11 8 6 4 2 0 2 4 6 8 10 13 15 17 18 19 21 23
7 7 7 8 8 8 8 8 9 10 10 11 12 13 14 14 15 16 16 16 17 17 16 15 14 12 9 7 5 3 1 1 3 5 7 9 11 13 16 17 18 20 22
8 9 9 9 9 9 9 9 9 9 10 10 11 12 13 14 14 15 15 15 16 16 15 14 14 12 10 7 5 4 2 1 1 3 5 7 9 11 13 15 16 17 20
9 9 10 10 10 10 10 10 10 10 10 10 11 11 12 13 13 13 14 14 14 15 14 14 13 13 12 9 7 5 3 2 1 2 4 6 8 10 11 12 14 15 16
11 11 11 11 11 12 12 11 11 11 10 10 10 11 11 12 12 12 13 13 13 13 13 13 12 12 11 10 8 6 5 3 1 1 3 5 6 8 10 11 12 13 14
13 13 13 13 13 13 13 13 13 12 12 11 11 11 11 11 11 11 12 12 12 12 12 12 12 11 11 10 9 7 6 5 3 1 1 3 5 7 8 10 11 12 13
14 14 14 14 14 15 15 15 15 14 13 13 12 11 11 11 11 11 11 11 11 11 11 11 11 11 10 10 9 7 6 5 4 2 1 1 3 5 7 9 9 10 12
16 16 16 16 16 16 16 17 16 16 15 15 14 13 12 11 11 11 10 10 10 10 10 10 10 9 9 9 9 8 6 5 4 3 2 1 2 3 5 7 8 9 11
18 18 18 18 18 18 18 18 18 18 17 17 16 15 14 13 12 12 11 10 10 10 10 9 9 9 8 8 8 8 6 5 5 4 3 2 2 3 4 5 7 8 10
20 20 20 21 21 21 21 21 20 20 19 19 18 17 16 15 14 13 12 11 11 10 10 9 9 8 8 8 7 7 7 6 5 4 4 4 3 3 4 5 6 8 9
23 23 23 23 23 23 23 23 22 22 22 21 21 20 19 18 17 15 14 13 12 12 11 10 9 9 8 8 7 7 7 6 6 6 5 5 5 5 5 6 7 8 9
26 25 25 25 26 26 25 25 25 24 24 24 23 22 21 20 19 18 17 16 14 13 12 11 11 10 10 9 9 8 8 7 7 7 7 7 7 7 7 8 8 9 10
30 29 28 28 28 28 28 28 27 27 26 26 26 25 24 23 22 21 19 18 17 16 14 13 12 12 11 11 10 10 10 9 9 9 9 9 9 9 9 10 10 11 11
33 33 32 32 31 31 31 30 30 30 29 29 28 27 26 25 25 23 22 21 19 18 17 16 15 14 13 13 13 12 12 11 11 11 11 11 11 11 11 12 12 13 14
37 37 36 35 35 35 35 34 33 33 32 31 31 30 29 28 27 26 25 23 22 21 19 18 17 16 15 15 15 14 14 14 13 13 13 13 13 13 13 14 14 14 15
40 40 40 39 38 38 38 38 37 36 35 34 33 33 31 31 30 29 28 26 25 23 22 21 20 19 18 17 17 16 16 16 15 15 15 15 15 15 15 16 16 16 17
43 43 43 42 42 41 41 41 40 40 39 37 36 35 34 33 32 32 30 29 28 26 25 24 23 22 21 20 19 19 18 18 17 17 17 17 17 17 18 18 18 19 19
46 46 46 45 45 44 43 44 43 43 42 41 39 38 37 36 35 34 33 32 30 29 28 27 26 24 23 22 21 21 20 20 20 19 19 19 19 20 20 20 20 20 21

GEFSMW_500_meanwind_120.txt.gz
Wind_Speed
5 5 5 5 5 5 5 6 8 9 10 12 13 14 15 17 17 18 19 19 19 18 18 18 17 17 16 16 15 16 17 18 19 21 22 24 26 27 27 28 29 29 28
5 5 5 5 5 5 6 7 8 9 10 12 13 14 15 17 17 18 19 19 19 19 18 18 17 16 15 14 13 14 14 16 17 19 21 22 24 26 27 27 28 29 29
4 5 5 5 6 6 7 7 8 9 10 12 13 14 15 17 17 18 19 19 19 19 18 18 17 16 14 13 12 11 12 14 15 17 19 20 22 25 26 27 28 29 29
4 5 6 6 6 6 7 7 8 9 10 12 13 14 15 17 17 18 19 19 19 19 18 18 16 14 13 11 10 9 10 11 13 15 17 19 21 23 25 26 27 29 29
4 5 5 6 6 6 7 7 8 9 10 12 13 14 15 16 17 18 18 18 19 18 17 17 16 14 12 11 9 8 8 9 11 14 16 17 19 21 23 25 26 27 29
4 5 5 6 6 7 7 7 8 9 10 11 13 14 15 16 16 17 18 18 18 18 17 16 15 14 12 10 8 7 7 8 10 12 14 16 18 20 21 23 25 26 27
5 6 6 6 7 7 8 8 8 9 10 11 13 14 15 16 16 16 17 17 17 17 17 16 15 14 13 11 9 7 6 6 7 9 12 14 16 18 19 20 22 23 25
6 7 7 8 8 8 8 9 9 10 10 11 12 13 15 15 15 16 16 16 17 17 16 16 14 13 12 11 9 7 5 4 5 7 9 11 13 15 17 18 19 21 23
7 8 8 8 9 9 9 10 10 10 11 12 12 13 14 15 15 15 15 16 16 16 16 15 14 13 11 10 9 7 5 3 2 4 6 9 11 13 15 16 18 19 21
9 10 10 10 10 10 11 11 11 11 12 12 13 13 14 14 14 15 15 15 15 15 15 14 14 13 12 10 8 7 5 3 2 3 5 7 9 12 13 15 16 18 19
11 11 11 11 12 12 13 12 12 13 13 13 13 14 14 14 14 14 15 15 14 14 14 14 13 13 11 10 8 7 5 4 2 2 4 6 8 10 12 14 16 17 18
12 13 13 13 14 14 15 15 14 14 14 14 14 14 14 14 14 14 14 14 14 14 14 13 12 12 11 10 9 7 6 4 2 2 4 5 7 8 10 12 14 15 15
13 14 14 15 15 16 16 16 16 16 16 16 16 15 15 15 15 14 14 13 13 13 13 13 12 11 11 10 9 8 6 5 3 2 3 4 5 8 9 11 12 14 14
14 15 16 16 17 17 17 18 18 18 18 18 18 17 17 16 15 15 15 14 13 13 13 12 12 11 10 9 8 7 6 5 4 3 2 3 4 6 8 9 10 12 13
16 17 17 18 19 19 19 19 19 19 19 19 19 19 19 18 17 16 16 15 14 13 13 12 12 11 10 9 8 7 6 5 4 3 3 3 4 5 7 9 9 11 12
19 19 19 20 20 21 21 21 21 21 21 21 21 21 20 19 19 18 17 16 15 14 14 13 12 11 10 9 8 7 6 5 4 3 3 3 4 5 7 8 9 10 12
22 22 23 23 23 23 23 23 24 23 23 23 23 23 22 21 21 20 19 18 17 16 15 14 13 12 11 10 8 7 7 6 5 4 4 4 4 5 6 7 9 10 11
24 25 25 26 26 26 26 27 27 26 26 26 26 25 25 24 23 22 21 20 19 18 17 16 15 14 13 11 10 9 7 7 6 5 5 5 5 6 6 7 8 9 10
28 29 29 30 30 30 30 30 30 30 29 29 29 28 28 27 26 25 24 23 22 21 20 18 17 16 15 13 12 11 10 9 8 7 7 6 6 7 7 8 8 9 10
33 33 34 34 34 34 34 33 33 33 33 32 32 31 30 30 29 28 27 25 25 24 22 21 20 18 17 16 15 13 12 11 11 10 10 9 9 9 9 9 9 10 11
36 37 38 38 38 38 37 36 36 36 36 35 34 34 33 32 32 31 30 29 27 26 25 24 22 21 20 19 18 17 16 14 13 13 12 12 11 11 10 11 11 12 12
41 41 41 41 42 42 41 40 39 39 39 39 37 36 36 36 34 34 33 32 31 29 28 26 25 24 23 22 20 20 19 18 17 16 15 15 14 14 13 13 13 14 14
44 44 44 44 44 44 44 43 42 41 41 41 40 40 39 39 38 37 36 35 34 32 31 29 28 27 26 24 23 22 21 21 20 19 18 17 17 16 16 16 16 16 16
47 47 47 47 46 46 46 46 45 45 44 44 43 42 42 42 41 40 39 38 37 35 34 32 31 30 29 27 26 25 24 23 23 22 21 20 19 19 18 18 18 18 19
49 49 49 49 48 48 47 48 47 47 46 45 45 44 44 44 43 42 42 41 39 38 37 35 34 32 31 30 29 28 27 26 25 24 23 23 22 21 20 20 20 20 20
51 51 51 51 50 49 49 48 48 48 47 46 45 45 44 44 44 44 44 44 42 41 40 39 37 36 34 33 32 31 30 29 28 27 26 25 24 23 22 22 21 21 21

GEFSMW_500_meanwind_126.txt.gz
Wind_Speed
6 6 7 7 7 7 7 8 9 10 11 11 12 13 14 15 16 16 17 18 19 19 19 19 19 18 17 16 15 14 15 15 16 17 18 19 21 23 25 27 28 29 29
5 6 6 7 7 7 8 8 9 10 11 12 12 13 14 15 15 16 17 18 19 19 19 19 19 17 17 16 15 14 13 14 15 16 16 18 19 21 24 26 27 29 30
5 6 6 7 7 7 8 8 9 10 11 12 13 13 14 15 16 16 17 18 18 19 19 19 19 18 17 16 15 13 13 13 13 14 15 17 18 20 23 25 26 28 29
5 5 5 6 7 8 8 9 9 11 11 12 13 13 14 15 16 17 17 18 18 19 19 19 18 18 17 16 14 13 12 11 12 14 15 16 18 19 22 24 25 27 28
5 5 6 6 7 8 8 9 10 11 12 12 13 14 14 15 16 17 17 18 18 18 19 19 18 18 17 16 14 13 11 10 11 12 14 16 17 19 20 23 25 27 28
5 6 6 7 8 8 9 10 11 12 13 13 14 14 15 16 16 17 17 17 18 18 18 18 18 17 16 16 15 13 10 9 9 10 11 13 15 18 19 21 24 26 26
6 6 7 8 9 10 11 11 12 13 14 14 15 15 16 16 17 17 17 17 18 18 18 18 18 17 16 15 15 13 10 8 7 8 9 12 14 16 18 20 22 24 26
7 8 8 9 10 11 12 13 13 14 15 15 15 16 16 17 17 17 17 18 18 18 18 18 18 17 16 15 14 12 10 8 6 5 7 9 12 14 16 19 21 23 24
9 9 10 10 11 12 13 14 14 15 15 16 16 16 17 17 18 17 18 18 17 17 17 18 17 17 16 14 13 12 10 8 6 5 5 8 10 13 14 17 19 22 23
9 10 11 11 12 12 13 14 15 16 16 17 17 17 18 18 18 18 18 18 18 17 17 17 17 16 15 14 13 12 10 8 6 5 4 6 8 11 12 15 18 20 22
9 10 11 12 13 14 15 15 16 16 17 18 18 19 19 19 19 19 19 19 18 18 17 17 16 15 15 14 13 12 10 8 7 5 5 5 7 9 11 14 16 18 20
10 11 12 13 14 15 16 16 17 18 18 19 19 20 20 20 20 20 20 19 19 19 18 17 16 15 14 14 13 12 10 9 7 6 6 6 7 8 10 13 15 17 19
12 12 13 14 15 16 17 18 19 20 20 21 21 21 21 21 21 21 21 20 20 19 19 18 17 16 15 14 13 12 10 9 8 7 6 7 8 8 10 11 14 16 18
13 15 16 16 17 18 19 20 21 22 22 22 23 23 23 23 23 22 22 22 21 20 20 19 18 17 16 15 14 13 11 9 9 8 7 7 8 8 10 11 13 15 17
16 17 18 19 20 21 22 22 23 24 24 25 25 25 26 26 25 24 24 23 22 22 21 20 19 17 16 15 14 13 12 10 9 9 8 8 9 9 10 12 13 14 15
18 19 20 21 22 23 24 25 26 27 27 27 28 28 28 28 28 27 26 25 24 23 23 22 21 19 18 16 15 14 13 12 10 9 9 8 8 9 10 11 12 13 14
20 21 22 23 24 25 26 28 29 29 30 30 30 30 30 30 30 29 29 28 27 25 24 24 23 22 20 19 17 16 15 14 13 11 11 10 10 10 10 11 12 13 14
23 24 25 26 27 29 29 30 31 31 32 33 33 33 33 33 32 31 31 30 29 28 27 26 25 24 23 21 20 18 17 16 15 14 13 12 12 12 12 12 12 13 14
27 28 29 30 31 32 32 33 34 34 34 35 35 35 35 35 34 34 33 33 32 30 29 28 27 26 25 24 23 21 20 19 18 17 16 15 14 14 14 14 14 14 15
31 32 32 33 34 35 35 36 36 37 37 37 37 37 37 37 37 37 36 36 35 33 32 31 30 29 28 27 26 24 23 21 21 20 19 18 17 15 15 16 15 15 16
33 35 36 36 37 38 38 39 39 40 40 40 40 39 39 39 39 39 39 39 38 36 35 34 33 31 30 29 28 27 26 24 23 22 21 20 19 18 17 17 17 17 18
36 37 38 38 39 40 41 41 42 43 43 43 43 42 42 41 40 40 41 40 40 39 38 37 36 35 33 32 30 29 28 27 26 24 24 23 22 21 20 19 18 18 18
38 39 40 40 41 42 43 44 45 46 46 46 45 44 44 43 42 41 41 40 40 40 39 39 38 37 36 35 34 32 31 30 28 27 26 26 25 25 24 23 22 21 20
40 41 42 43 43 44 46 47 47 48 48 47 47 46 45 44 43 42 42 41 40 41 41 41 40 40 39 38 37 36 34 33 32 30 29 28 27 26 26 26 25 24 23
42 43 44 45 46 47 48 49 49 49 49 48 48 47 47 46 45 43 42 41 41 41 42 41 41 41 41 40 40 39 38 36 35 34 33 31 30 29 28 27 27 27 26
45 46 47 48 49 49 50 50 49 49 49 48 48 47 46 45 45 44 43 42 42 42 42 42 41 41 41 42 42 42 41 40 39 37 36 34 33 32 30 29 29 28 28